Regional Weather Roundup
Issued by NWS

Home | Current Version | Previous Version | Text Only | Print | Product List | Glossary Off
Versions: 1 2 3 4 5 6 7 8 9 10 11 12 13 14 15 16 17 18 19 20 21 22 23 24 25 26 27 28 29 30 31 32 33 34 35 36 37 38 39 40 41 42 43 44 45 46 47 48 49 50

000
ASUS43 KMPX 242010
RWRMN
WEATHER ROUNDUP FOR MINNESOTA
NATIONAL WEATHER SERVICE TWIN CITIES/CHANHASSEN MN
300 PM CDT WED MAY 24 2017


NOTE: "FAIR" INDICATES FEW OR NO CLOUDS BELOW 12,000 FEET WITH NO
SIGNIFICANT WEATHER AND/OR OBSTRUCTIONS TO VISIBILITY. N/A MEANS
CURRENT SKY AND/OR WEATHER CONDITIONS ARE NOT AVAILABLE.

MNZ060>063-068>070-242100-
   Twin Cities Metro

CITY           SKY/WX    TMP DP  RH WIND       PRES   REMARKS
TWIN CITIES    CLOUDY    60  42  51 NE8       29.73S
ST PAUL        CLOUDY    59  45  59 NE8       29.73F
CRYSTAL        CLOUDY    59  41  51 NE7       29.72F
BLAINE         CLOUDY    61  45  55 NE8       29.73F
LAKEVILLE      CLOUDY    57  46  67 NE8       29.72S
EDEN PRAIRIE   CLOUDY    60  43  53 NE6       29.72S
SOUTH ST PAUL  CLOUDY    59  44  56 NE8       29.72F
LAKE ELMO      CLOUDY    59  46  63 CALM      29.73F
$$
MNZ001>005-007-008-013>017-022>024-027-028-242100-
   Northwest Minnesota

CITY           SKY/WX    TMP DP  RH WIND       PRES   REMARKS
BEMIDJI        MOSUNNY   64  40  42 SE14      29.73F
HALLOCK        MOSUNNY   70  36  28 S20G31    29.66F
ROSEAU         MOSUNNY   68  39  34 SE9       29.69F
WARROAD        SUNNY     66  43  42 E10G16    29.70F
THIEF RVR FALL MOSUNNY   66  40  38 SE20      29.71F
CROOKSTON      MOSUNNY   64  41  42 S14G21    29.69S
FOSSTON        MOSUNNY   66  43  42 SE12G20   29.71F
DETROIT LAKES  MOSUNNY   61  39  44 SE14      29.72F
MOORHEAD       MOSUNNY   63  41  45 SE12G20   29.70F
PARK RAPIDS    CLOUDY    63  37  38 SE15G23   29.72F
MAHNOMEN       MOCLDY    63  40  43 SE14G21   29.70F
$$
MNZ006-009>011-018-025>026-242100-
   North Central Minnesota

CITY           SKY/WX    TMP DP  RH WIND       PRES   REMARKS
BAUDETTE       MOSUNNY   68  37  32 SE14G21   29.72F
FLAG ISLAND    SUNNY     61  39  44 S3        29.72F
INTL FALLS     MOSUNNY   66  34  30 E14G21    29.74F
WASKISH        PTSUNNY   64  37  36 E12       29.72F
BIG FORK       PTSUNNY   63  39  42 SE8       29.75S
LONGVILLE      CLOUDY    59  41  51 E7        29.75F
GRAND RAPIDS   CLOUDY    57  42  57 VRB5      29.78F
CRANE LAKE     MOSUNNY   64  34  32 CALM      29.76F
ORR            PTSUNNY   64  32  29 SE6G17    29.73S
COOK           PTSUNNY   61  39  44 E6        29.77S
WALKER         MOCLDY    59  41  52 E9        29.75S
$$
MNZ012-019>021-037-242100-
   Northeast Minnesota

CITY           SKY/WX    TMP DP  RH WIND       PRES   REMARKS
DULUTH         PTSUNNY   59  44  57 E17G24    29.77S
ELY            CLOUDY    61  37  41 E8        29.76F
HIBBING        CLOUDY    57  39  51 SE9       29.76F
EVELETH        MOSUNNY   60  31  33 SE9G16    29.77F
DULUTH HARBOR  CLOUDY    48  43  81 NE17      29.79F
TWO HARBORS    PTSUNNY   59  46  63 E15       29.77S
SILVER BAY     MOSUNNY   55  43  62 E12G17    29.78F
GRAND MARAIS     N/A     48  35  60 NE9       29.80F
G MARAIS ARPRT SUNNY     57  30  35 E9G18     29.80S
$$
MNZ029>031-032-039>041-046>048-054>057-064-242100-
   West Central Minnesota

CITY           SKY/WX    TMP DP  RH WIND       PRES   REMARKS
FERGUS FALLS   CLOUDY    61  43  51 S8        29.70F
WHEATON        CLOUDY    61  43  51 SE10      29.72F
MORRIS         CLOUDY    61  45  55 E9        29.72F
ALEXANDRIA     CLOUDY    58  43  57 E9        29.74F
ELBOW LAKE     CLOUDY    58  43  55 E9        29.72F
WADENA         CLOUDY    59  43  55 E13G20    29.73S
GLENWOOD       PTSUNNY   59  45  58 E8        29.74F
APPLETON       CLOUDY    61  45  55 E8        29.72F
BENSON         CLOUDY    61  43  51 SE8       29.74F
ORTONVILLE     CLOUDY    61  45  55 E7        29.72F
MADISON        CLOUDY    63  46  55 E3        29.72F
WILLMAR        PTSUNNY   59  46  63 NE8       29.74F
$$
MNZ033>034-036-042>043-049>051-058-059-242100-
   Central Minnesota

CITY           SKY/WX    TMP DP  RH WIND       PRES   REMARKS
ST CLOUD       CLOUDY    57  44  62 NE8       29.74F
SAUK CENTRE    CLOUDY    58  44  60 E12       29.74F
PAYNESVILLE    CLOUDY    57  43  59 NE8       29.74F
AITKIN         CLOUDY    57  43  58 E8        29.74F
PINE RIVER     MOSUNNY   61  45  55 SE10G17   29.79F
BRAINERD       PTSUNNY   59  42  53 VRB5      29.75F
STAPLES        CLOUDY    57  39  51 E9        29.74F
LONG PRAIRIE   CLOUDY    55  43  62 NE8       29.75S
LITTLE FALLS   CLOUDY    57  41  54 NE3       29.75F
LITCHFIELD     CLOUDY    57  46  67 NE7       29.74F
BUFFALO        CLOUDY    58  42  54 NE8       29.74F
MAPLE LAKE     CLOUDY    58  46  64 E5        29.75S
HUTCHINSON     CLOUDY    59  47  63 NE6       29.74F
$$
MNZ037-044-045-052-053-242100-
   East Central Minnesota

CITY           SKY/WX    TMP DP  RH WIND       PRES   REMARKS
PRINCETON      CLOUDY    61  45  55 N6        29.75S
MORA           CLOUDY    55  41  58 E3        29.76F
CAMBRIDGE      CLOUDY    61  45  55 NE5       29.73S
RUSH CITY      CLOUDY    60  44  55 NE8       29.74S
MOOSE LAKE     CLOUDY    59  43  55 E7        29.74F
HINCKLEY       CLOUDY    57  43  58 NE5       29.75S
CLOQUET        CLOUDY    55  39  54 E12G23    29.77S
MCGREGOR       CLOUDY    59  41  51 E13G18    29.76F
$$
MNZ071>073-080-081-089-090-097-098-242100-
   Southwest Minnesota

CITY           SKY/WX    TMP DP  RH WIND       PRES   REMARKS
MONTEVIDEO     CLOUDY    63  46  55 E8        29.72F
GRANITE FALLS  CLOUDY    63  46  55 NE8       29.73F
CANBY          CLOUDY    60  45  59 CALM      29.74S
MARSHALL       CLOUDY    58  43  57 E6        29.73F
REDWOOD FALLS  CLOUDY    60  42  51 E7        29.72F
OLIVIA         CLOUDY    59  43  55 E8        29.72F
PIPESTONE      CLOUDY    61  39  44 E7        29.72F
WINDOM         MOSUNNY   57  45  62 N6        29.73F
WORTHINGTON    CLOUDY    56  44  64 NE7       29.73F
JACKSON        CLOUDY    55  45  67 N9        29.73F
TRACY          PTSUNNY   59  46  62 E6        29.73F
SLAYTON        CLOUDY    57  45  63 E8        29.73F
$$
MNZ065>067-074>077-082>085-091>093-242100-
   South Central Minnesota

CITY           SKY/WX    TMP DP  RH WIND       PRES   REMARKS
MANKATO        CLOUDY    58  46  64 NE3       29.73F
NEW ULM        CLOUDY    55  45  67 NE7       29.73F
ST JAMES       PTSUNNY   59  46  63 NE8       29.74F
FAIRMONT       MOSUNNY   58  45  62 N6        29.73F
GLENCOE        CLOUDY    59  48  67 NE5       29.73S
FARIBAULT      CLOUDY    59  46  63 N6        29.72S
OWATONNA       PTSUNNY   61  45  55 NE3       29.71F
WASECA         CLOUDY    55  46  71 NE6       29.73F
ALBERT LEA     CLOUDY    61  48  63 NE7       29.71S
$$
MNZ078>079-086>088-094>096-242100-
   Southeast Minnesota

CITY           SKY/WX    TMP DP  RH WIND       PRES   REMARKS
ROCHESTER      CLOUDY    59  47  64 NE10      29.71S
RED WING       CLOUDY    61  43  51 N8        29.70S
STANTON        CLOUDY    60  47  62 NE8       29.70F
DODGE CENTER   CLOUDY    57  45  62 N8        29.71S
WINONA         CLOUDY    61  46  59 NE5       29.68F
AUSTIN         CLOUDY    61  48  63 N6        29.70S
PRESTON        PTSUNNY   58  45  63 NE10      29.69S
$$
ABBREVIATIONS USED IN REMARKS
   TC - TEMPERATURES IN CELSIUS
  WCI - WIND CHILL INDEX
   HX - HEAT INDEX
  VSB - VISIBILITY
$$




USA.gov is the U.S. government's official web portal to all federal, state and local government web resources and services.